Location: 81360 Arifat, France
(43.7204°N, 2.3408°E)
Time: 09:16:58
(UTC+02:00)

ISS - Visible Passes

Search period start: 23 September 2021 00:00
Search period end: 03 October 2021 00:00
Orbit: 419 x 424 km, 51.6° (Epoch: 23 September)

Date Brightness Start Highest point End Pass type
(mag) Time Alt. Az. Time Alt. Az. Time Alt. Az.
23 Sep -2.4 20:09:47 10° W 20:12:57 37° NNW 20:16:07 10° NE visible
23 Sep -1.6 21:47:49 10° NW 21:50:26 21° N 21:50:40 20° N visible
24 Sep -1.7 21:00:39 10° WNW 21:03:21 22° N 21:05:32 13° NE visible
24 Sep -0.4 22:38:04 10° NW 22:38:31 13° NW 22:38:31 13° NW visible
25 Sep -1.8 20:13:26 10° WNW 20:16:15 24° NNW 20:19:05 10° NE visible
25 Sep -1.6 21:51:08 10° NW 21:53:21 22° N 21:53:21 22° N visible
26 Sep -1.7 21:04:07 10° NW 21:06:46 21° N 21:08:10 16° NE visible
26 Sep -0.2 22:40:59 10° NW 22:41:09 11° NW 22:41:09 11° NW visible
27 Sep -1.7 20:17:01 10° NW 20:19:39 21° N 20:22:17 10° NE visible
27 Sep -1.7 21:54:07 10° NW 21:55:58 24° NNW 21:55:58 24° NNW visible
28 Sep -2.3 21:07:14 10° NW 21:10:08 26° NNE 21:10:48 24° NE visible
29 Sep -2.0 20:20:17 10° NW 20:23:03 23° N 20:25:39 11° ENE visible
29 Sep -1.6 21:57:00 10° NW 21:58:38 26° NW 21:58:38 26° NW visible
30 Sep -3.2 21:10:07 10° NW 21:13:22 43° NNE 21:13:32 42° NNE visible
01 Oct -2.6 20:23:14 10° NW 20:26:19 32° NNE 20:28:28 16° ENE visible
01 Oct -1.3 22:00:01 10° WNW 22:01:27 23° WNW 22:01:27 23° WNW visible
02 Oct -3.9 21:13:01 10° WNW 21:16:23 82° SSW 21:16:27 81° S visible
